Location: Hannover
(52.3723°N, 9.7339°E)
Time: 03:47:37
(UTC+01:00)

ISS - Pass Details

Date: 06 January 2018
Orbit: 402 x 407 km, 51.6° (Epoch: 21 January)

Event Time Altitude Azimuth Distance (km) Brightness Sun altitude
Exits shadow 05:13:18 17° 88° (E) 1,109 -0.8 -28.7°
Drops below altitude 10° 05:14:13 10° 85° (E) 1,470 -0.1 -28.6°
Sets 05:16:19 0° 82° (E) 2,333 1.2 -28.3°
